Regional Weather Roundup
Issued by NWS Mobile, AL

Home | Current Version | Previous Version | Text Only | Print | Product List | Glossary On
Versions: 1 2 3 4 5 6 7 8 9 10 11 12 13 14 15 16 17 18 19 20 21 22 23 24 25 26 27 28 29 30 31 32 33 34 35 36 37 38 39 40 41 42 43 44 45 46 47 48 49
000
ASUS44 KMOB 210212
RWRMOB
REGIONAL WEATHER ROUNDUP
NATIONAL WEATHER SERVICE MOBILE AL
900 PM CDT FRI APR 20 2018

NOTE: "FAIR" INDICATES FEW OR NO CLOUDS BELOW 12,000 FEET WITH NO
      SIGNIFICANT WEATHER AND/OR OBSTRUCTIONS TO VISIBILITY.

  * THESE STATIONS ARE PART OF THE UNIVERSITY OF SOUTH ALABAMA
    MESONET AND ARE NOT UNDER NWS OR FAA QUALITY CONTROL.

ALZ061>064-210300-
COASTAL ALABAMA

CITY           SKY/WX    TMP DP  RH WIND       PRES   REMARKS
MOBILE REG APT FAIR      56  49  77 MISG      30.19R
BROOKLEY FIELD FAIR      60  51  72 SW5       30.19R
USA CAMPUS*    NOT AVBL
DOG RIVER*     NOT AVBL


CITY           SKY/WX    TMP DP  RH WIND       PRES   REMARKS
GULF SHORES    FAIR      59  50  73 NW5       30.17R

$$

ALZ051>060-210300-
INTERIOR SOUTHWEST AND SOUTH CENTRAL ALABAMA

CITY           SKY/WX    TMP DP  RH WIND       PRES   REMARKS
GREENVILLE     FAIR      60  42  51 NE6       30.22R
EVERGREEN      FAIR      58  47  66 NE5       30.21R
ATMORE*          N/A     64  48  55 N8        30.95R
ANDALUSIA/OPP  FAIR      63  45  51 NE6       30.20S
ANDALUSIA*       N/A     63  45  51 NE6       30.20R
FLORALA APT    FAIR      60  45  57 NE5       30.23R
FLORALA*       NOT AVBL

$$

FLZ001>006-210300-
WESTERN FLORIDA PANHANDLE

CITY           SKY/WX    TMP DP  RH WIND       PRES   REMARKS
PENSACOLA      FAIR      63  49  60 N5        30.17S
NAS PENSACOLA  MOCLDY    55  49  80 CALM      30.17S
MILTON         FAIR      55  50  83 NE3       30.18S
WHTNG S FIELD  FAIR      62  50  64 NE5       30.18S


CITY           SKY/WX    TMP DP  RH WIND       PRES   REMARKS
JAY*           NOT AVBL
DUKE FIELD     PTCLDY    58  47  66 E3        30.18R
CRESTVIEW      FAIR      58  48  69 CALM      30.20R
VALPARAISO     MOCLDY    62  49  62 N3        30.17R
DESTIN         FAIR      63  50  62 CALM      30.18R

$$

MSZ076-079-210300-
INTERIOR SOUTHEAST MISSISSIPPI

CITY           SKY/WX    TMP DP  RH WIND       PRES   REMARKS
LEAKESVILLE*   NOT AVBL
AGRICOLA*        N/A     57  48  72 CALM      30.18R

$$

MARINE OBSERVATIONS

STATION/POSITION TIME  TEMP    WIND        PRES    WAVE
                       AIR SEA DIR/SP/G            HT/PER
                 (UTC) (F)     (DEG/KT/KT) (MB)    (FT/S)
PETIT BOIS ISLND 0148   64     350/  4/  5 1022.7R
GRAND BAY        0030   64     260/  2     1023.0S
KATRINA CUT      0130   65     360/  3     1021.7F
CEDAR POINT      0130   63     360/  4       N/A
E DAUPHIN ISLAND 0200   65     350/  4/  5 1021.9R
MIDDLE BAY LIGHT 0130   64     290/  7     1021.3F
USCG MOBILE BAY  0148   64 66  250/  2/  4 1021.8R
STATE DOCKS      0148   66 66              1021.7R
MEAHER PARK      0130   64      30/  1     1021.7F
WEEKS BAY        0030   61                 1022.0S
FORT MORGAN      0148   65      10/  4/  5   N/A
12 S ORANGE BCH  0150   66      20/  4/  6 1021.5R   1/ 4
PENSACOLA BAY    0148   66 71  360/  4/  5 1021.8F
64 S DAUPHIN ISL 0150      71   80/  6/ 10 1022.0R   2/ 5
67 S FORT MORGAN 0130   64                 1021.3R

$$

SELECTED LOCATIONS ACROSS THE REGION

CITY           SKY/WX    TMP DP  RH WIND       PRES   REMARKS
NEW ORLEANS    FAIR      62  47  57 E6        30.19R
GULFPORT       FAIR      56  50  80 CALM      30.17R
PASCAGOULA AP  FAIR      52  49  89 CALM      30.19R
PASCAGOULA*    NOT AVBL
HATTIESBURG    FAIR      56  49  77 CALM      30.19S
LAUREL         FAIR      52  49  89 CALM      30.20S
MERIDIAN       FAIR      55  47  74 CALM      30.21S
JACKSON        FAIR      55  47  74 E3        30.19R
MONTGOMERY     FAIR      60  45  57 CALM      30.23S
TROY           FAIR      55  46  71 CALM      30.24R
ASHFORD*         N/A     63  45  51 NE6       30.20R
DOTHAN         FAIR      64  41  42 NE8       30.25R
PANAMA CITY    FAIR      63  54  72 NE5       30.18R

$$




USA.gov is the U.S. government's official web portal to all federal, state and local government web resources and services.